This is the latest recevied weather packets stored in our database for station/object KB1ZFK. If no packets are shown the sender has not sent any weather packets the latest 10 day(s).
| Time | Temp. | Humidity | Pressure | Rain* | Wind** | Luminosity | Snow |
|---|---|---|---|---|---|---|---|
| 1778124837 | 10° C | 97% | 1006.3 hPa | 0 mm | - | 0 W/m² | - |
| 1778124534 | 10° C | 97% | 1006.4 hPa | 0 mm | - | 0 W/m² | - |
| 1778124231 | 10° C | 97% | 1006.3 hPa | 0 mm | - | 0 W/m² | - |
| 1778123927 | 10.56° C | 97% | 1006.1 hPa | 0 mm | - | 0 W/m² | - |
| 1778123624 | 10.56° C | 97% | 1006.5 hPa | 0 mm | - | 0 W/m² | - |
| 1778123321 | 10.56° C | 97% | 1006.4 hPa | 1.27 mm | - | 0 W/m² | - |
| 1778123018 | 11.11° C | 97% | 1006.2 hPa | 3.05 mm | - | 0 W/m² | - |
| 1778122715 | 11.11° C | 97% | 1006.2 hPa | 4.32 mm | - | 0 W/m² | - |
| 1778122412 | 11.11° C | 97% | 1006.4 hPa | 4.83 mm | - | 0 W/m² | - |
| 1778122110 | 11.67° C | 97% | 1006.5 hPa | 3.56 mm | - | 0 W/m² | - |
| 1778121807 | 11.67° C | 97% | 1006.6 hPa | 0 mm | - | 0 W/m² | - |
| 1778121503 | 11.67° C | 97% | 1006.3 hPa | 0 mm | - | 0 W/m² | - |
| 1778121199 | 11.67° C | 97% | 1006.3 hPa | 1.27 mm | - | 0 W/m² | - |
| 1778120897 | 11.67° C | 97% | 1006.1 hPa | 3.05 mm | - | 0 W/m² | - |
| 1778120593 | 12.22° C | 97% | 1005.9 hPa | 1.78 mm | - | 0 W/m² | - |
| 1778120290 | 12.22° C | 97% | 1006 hPa | 0 mm | - | 0 W/m² | - |
| 1778119985 | 12.78° C | 97% | 1005.9 hPa | 0 mm | - | 0 W/m² | - |
| 1778119683 | 12.78° C | 97% | 1005.8 hPa | 0 mm | - | 0 W/m² | - |
| 1778119379 | 12.78° C | 97% | 1005.9 hPa | 0 mm | - | 0 W/m² | - |
| 1778119077 | 13.33° C | 97% | 1005.7 hPa | 1.27 mm | - | 0 W/m² | - |
| 1778118774 | 13.33° C | 96% | 1005.5 hPa | 1.27 mm | - | 0 W/m² | - |
| 1778118471 | 13.33° C | 96% | 1005.5 hPa | 0 mm | - | 0 W/m² | - |
| 1778118167 | 13.89° C | 96% | 1005.5 hPa | 0 mm | - | 0 W/m² | - |
| 1778117864 | 14.44° C | 96% | 1005.2 hPa | 3.05 mm | - | 0 W/m² | - |
| 1778117562 | 14.44° C | 96% | 1005.3 hPa | 7.87 mm | - | 0 W/m² | - |
* Rain latest hour (hover to see other rain measurements)
** Current wind speed in m/s (hover to see current wind gust speed)